P/2020 G1 ( Pimentel )

Japanese version
Home page
Updated on May 24, 2020

---------------------------------------------------------------------

* Profile

Discovery Date April 13, 2020
Magnitude 15.2 mag
Discoverer Eduardo Pimentel (Southern Observatory for Near Earth Research (SONEAR) at Oliveira, Brazil)

* Pictures

* Orbital Elements

Epoch 2020 Mar. 12.0 TT = JDT 2458920.5
T 2020 Mar. 17.47142 TT                                 Rudenko
q   0.5067957            (2000.0)            P               Q
n   0.13940140     Peri.  207.87266     +0.05790938     -0.95972306
a   3.6837598      Node   240.00863     +0.96479501     +0.12456707
e   0.8624243      Incl.   18.50677     +0.25654842     -0.25182272
P   7.07
From 140 observations 2020 Apr. 27-May 21, mean residual 0".6.

* Finding Charts

* Magnitudes Graph

        m1 = 17.0 + 5 log d + 10.0 log r

---------------------------------------------------------------------

The orbital elements are published on M.P.E.C. 2020-K117.
The charts are made with StellaNavigator Ver.10 (AstroArts).
The magnitudes graphs are made with Comet for Windows.

---------------------------------------------------------------------

Copyright(C) Seiichi Yoshida (comet@aerith.net). All rights reserved.